Location: *
(52.1167°N, 12.4333°E)
Time: 10:13:19
(UTC+00:00)

Daily predictions for brighter satellites

Satellite Brightness Start Highest point End
(mag) Time Altitude Azimuth Time Altitude Azimuth Time Altitude Azimuth
Cosmos 773 Rocket 4.0 15:47:26 10° SSW 15:52:35 72° ESE 15:57:50 10° NNE
Cosmos 2233 Rocket 4.2 15:48:54 10° N 15:55:16 85° W 16:01:33 10° S
Cosmos 1500 Rocket 4.1 15:51:08 10° NNW 15:55:29 63° W 15:59:45 10° S
Okean-O 3.4 15:51:43 10° SE 15:55:37 31° ENE 15:59:33 10° N
CZ-4B R/B 2.3 15:52:33 10° N 15:55:52 53° WNW 15:59:14 10° SSW
Meteor 2-2 Rocket 4.4 15:50:24 10° S 15:56:04 58° E 16:01:39 10° NNE
Cosmos 1633 Rocket 3.7 15:53:27 10° N 15:57:28 33° ENE 16:01:29 10° SE
Genesis I 3.7 15:55:35 10° WSW 15:59:32 58° NW 16:03:30 10° NE
Cosmos 2263 Rocket 3.1 15:55:24 10° NNW 16:00:10 28° NE 16:04:55 10° E
Feng Yun 1-1 Rocket 4.2 15:55:43 10° SSE 16:01:10 63° ENE 16:06:32 10° N
Sich 1 3.1 15:57:32 10° N 16:01:50 55° ENE 16:06:09 10° SSE
ATLAS 5 CENTAUR R/B 3.8 15:58:39 10° NW 16:04:03 44° SW 16:10:11 10° SSE
USA 215 3.5 16:01:56 10° ENE 16:08:20 59° N 16:14:43 10° W
Cosmos 1666 Rocket 3.6 16:09:23 10° N 16:13:41 54° ENE 16:17:56 10° SSE
H-2A R/B 2.8 16:10:05 10° SSE 16:13:49 55° ENE 16:17:32 10° N
Okean O Rocket 2.9 16:10:18 10° S 16:14:30 45° W 16:18:43 10° NNW
Cosmos 2369 4.1 16:10:18 10° S 16:15:37 43° ESE 16:21:00 10° NE
ASTEX 1 3.7 16:11:11 10° N 16:16:12 73° W 16:21:10 10° SSW
Cosmos 923 Rocket 4.4 16:12:06 10° S 16:17:01 43° ESE 16:21:55 10° NE
Cosmos 1869 3.2 16:13:13 10° S 16:17:08 70° E 16:21:03 10° NNE
NOSS 8 (A) 4.4 16:14:11 10° WSW 16:17:13 62° NW 16:20:00 12° NE
Cosmos 1624 Rocket 4.3 16:12:08 10° NNW 16:17:19 47° ENE 16:22:28 10° SE
COSMO-SKYMED 1 4.0 16:15:11 10° NE 16:18:08 18° E 16:21:08 10° SE
Cosmos 2082 4.0 16:12:31 10° NNW 16:18:09 75° WSW 16:23:46 10° SSE
Cosmos 2344 3.9 16:11:01 10° WSW 16:18:31 69° NW 16:27:23 10° NE
Cosmos 2056 Rocket 3.7 16:13:39 10° NNW 16:18:36 46° ENE 16:23:35 10° SE
Cosmos 2221 3.2 16:14:40 10° SSW 16:18:57 59° WNW 16:23:17 10° N
Cosmos 1697 Rocket 3.1 16:14:14 10° S 16:19:33 43° ESE 16:24:52 10° NE
USA 229 DEB 3.7 16:13:14 10° SW 16:19:50 81° SE 16:26:44 10° NE
USA 229 3.7 16:13:21 10° SW 16:19:57 80° SE 16:26:49 10° NE
NOSS 3-1 (C) 3.4 16:16:55 10° SW 16:22:34 78° SE 16:28:58 11° NE
ERBS 2.3 16:19:38 10° SW 16:22:55 67° SSE 16:25:19 17° ENE
Cosmos 1891 Rocket 4.5 16:18:32 10° N 16:24:54 70° ENE 16:31:05 10° SSE
NOSS 3-1 (A) 3.6 16:19:38 10° SSW 16:25:08 57° SE 16:31:00 12° NE
BREEZE-M DEB (TANK) 3.4 16:15:04 10° WSW 16:25:11 64° S 16:27:59 14° E
YAOGAN 6 3.5 16:22:42 10° ESE 16:25:37 25° ENE 16:28:33 10° N
Cosmos 1464 Rocket 3.9 16:19:43 10° N 16:25:53 71° ENE 16:32:00 10° SSE
NOSS 2-3 (D) 4.5 16:22:25 10° S 16:26:28 36° ESE 16:30:05 15° ENE
ALOS 4.2 16:22:37 10° SSW 16:26:51 33° W 16:31:05 10° NNW
SeaSat 1 2.6 16:22:06 10° SE 16:26:51 51° NE 16:31:39 10° NNW
IRS-1C Rocket 4.3 16:23:17 10° SSE 16:28:35 78° WSW 16:33:54 10° NNW
Cosmos 1656 3.6 16:23:05 10° SSW 16:28:37 79° ESE 16:34:06 10° NNE
Cosmos 1538 Rocket 4.2 16:24:11 10° SSW 16:29:29 79° WNW 16:34:53 10° NNE
SMAP 3.1 16:26:07 10° SSE 16:30:46 86° WSW 16:35:28 10° NNW
H-2A R/B 4.1 16:33:42 10° NE 16:33:42 10° NE 16:34:03 10° NE
FengYun 1-2 T 4.4 16:27:49 10° SE 16:33:03 46° ENE 16:38:17 10° N
Cosmos 2278 4.1 16:27:54 10° S 16:33:16 44° ESE 16:38:14 12° NE
Cosmos 1867 4.5 16:28:07 10° WSW 16:33:21 44° NW 16:38:27 11° NE
Cosmos 1072 Rocket 4.5 16:31:17 10° N 16:37:29 89° E 16:43:41 10° S
Meteor 2-11 Rocket 4.4 16:32:48 10° N 16:38:56 65° ENE 16:45:02 10° SSE
AQUARIUS 4.4 16:35:59 10° S 16:40:29 77° WSW 16:45:01 10° NNW
Cosmos 1844 Rocket 4.1 16:37:41 10° NNW 16:41:37 19° NNE 16:43:16 17° NE
Cosmos 1470 Rocket 3.7 16:40:40 10° N 16:45:05 53° ENE 16:49:29 10° SSE
YAOGAN 1 3.1 16:41:32 10° SE 16:45:27 35° ENE 16:49:24 10° N
CENTAUR R/B 3.6 16:38:41 10° NW 16:45:29 39° NNE 16:50:42 19° ENE
Envisat 2.9 16:42:21 10° SSE 16:47:24 71° ENE 16:52:30 10° N
Cosmos 2278 Rocket 4.2 16:45:49 10° NNW 16:48:09 12° NNE 16:50:01 11° NNE
Cosmos 2227 4.2 16:44:57 10° NNW 16:50:43 65° NE 16:56:26 10° SE
Cosmos 1356 Rocket 3.9 16:47:22 10° SSW 16:51:33 64° WNW 16:55:50 10° N
COBE Rocket 3.7 16:50:38 10° NNE 16:55:26 73° ESE 17:00:06 10° S
Cosmos 1420 Rocket 4.2 16:53:49 10° NNW 16:58:51 48° ENE 17:03:28 12° SE
CSL-04 Debris 4.3 16:53:42 10° SE 16:59:01 53° ENE 17:04:21 10° N
Cosmos 158 Rocket 4.3 16:56:52 10° S 17:01:50 45° ESE 17:04:39 23° NE
CZ-4 R/B 1.3 16:59:48 10° SSE 17:03:51 61° ENE 17:07:50 10° N
NOSS 2-3 (C) 3.8 16:59:36 10° SSW 17:04:03 68° SE 17:06:56 26° NE
SKYMED 2 3.8 17:03:52 20° NNE 17:06:41 47° E 17:10:52 10° S
Cosmos 1452 Rocket 3.8 17:01:57 10° NNW 17:07:04 46° ENE 17:10:09 22° ESE
Cosmos 1939 Rocket 3.7 17:07:58 32° NE 17:07:58 32° NE 17:11:14 10° N
ATLAS 3B R/B 3.4 17:02:30 10° NW 17:08:31 34° NNE 17:11:21 25° ENE
Cosmos 1371 Rocket 4.3 17:04:15 10° NNW 17:09:26 68° WSW 17:14:34 10° SSE
Geosat 4.2 17:07:11 26° NE 17:09:42 48° ESE 17:14:33 10° S
USA 238 DEB 4.0 17:02:55 10° NW 17:09:52 55° NNE 17:14:03 26° E
CSL-04 Rocket 3.6 17:04:39 10° SSE 17:09:54 62° ENE 17:15:08 10° N
USA 238 4.0 17:03:01 10° NW 17:09:58 54° NNE 17:14:08 26° E
Cosmos 1606 4.0 17:08:45 10° SSE 17:10:39 24° SE 17:10:39 24° SE
Lacrosse 4 Rocket 1.8 17:08:50 10° SW 17:12:51 58° NW 17:15:07 24° NNE
NOSS 3-2 (A) 4.1 17:06:19 10° NW 17:13:16 54° NNE 17:17:42 26° E
Cosmos 2369 Rocket 4.4 17:12:49 10° NW 17:15:05 12° NNW 17:17:20 10° N
Cosmos 1933 3.4 17:14:38 10° S 17:18:34 50° E 17:19:00 48° ENE
Meteor 1-20 Rocket 4.2 17:12:51 10° N 17:18:41 61° ENE 17:24:25 10° SSE
Meteor 1-25 Rocket 4.2 17:15:55 10° N 17:21:35 64° ENE 17:27:17 10° SSE
Cosmos 1980 Rocket 2.1 17:20:16 10° SSW 17:25:55 74° ESE 17:29:07 27° NE
Cosmos 2034 Rocket 4.5 17:19:50 10° NNW 17:26:08 64° W 17:32:26 10° S
SL-16 R/B 3.3 17:21:55 10° SSE 17:25:11 25° SE 17:25:11 25° SE
Cosmos 2112 Rocket 4.0 17:21:26 10° SSW 17:26:40 84° WNW 17:30:28 19° NNE
GEOS 3 Rocket 3.7 17:25:09 38° ENE 17:26:58 58° SE 17:32:09 10° SSW
Cosmos 1943 Rocket 4.5 17:25:05 10° NNW 17:27:03 12° N 17:29:01 10° NNE
Ariane Rocket 3.2 17:29:42 44° E 17:30:25 47° ENE 17:35:17 10° N
APEX 3.2 17:27:57 10° SSW 17:30:29 51° SSW 17:30:29 51° SSW
BREEZE-M DEB (TANK) 3.7 17:27:39 10° SW 17:31:25 24° S 17:31:39 24° SSE
CZ-2D R/B 4.2 17:33:07 35° N 17:33:07 35° N 17:35:34 10° N
Okean-O 4.1 17:27:55 10° SSW 17:32:02 38° W 17:36:12 10° NNW
Cosmos 1680 Rocket 3.8 17:26:57 10° SW 17:32:10 68° WNW 17:36:11 17° NNE
Cosmos 2322 Rocket 3.7 17:28:32 10° SSE 17:30:44 20° SE 17:30:44 20° SE
Timation 1 Rocket 4.3 17:30:56 10° NNW 17:36:58 89° WSW 17:41:45 17° SSE
Cosmos 44 3.4 17:34:42 10° NW 17:38:32 46° NNE 17:38:32 46° NNE
Cosmos 1151 Rocket 3.5 17:35:30 10° SSW 17:39:50 61° WNW 17:44:09 10° N
Cosmos 1634 Rocket 3.8 17:36:21 10° N 17:42:35 83° ENE 17:48:46 10° SSE
Cosmos 2263 Rocket 2.2 17:39:06 10° NNW 17:44:42 77° WSW 17:49:12 16° SSE
USA 215 3.2 17:48:56 45° E 17:51:03 72° NNE 17:57:34 10° WNW
Cosmos 1933 Rocket 4.5 17:48:21 10° NNW 17:52:33 48° W 17:56:44 10° SSW
Cosmos 2228 Rocket 3.0 17:48:11 10° S 17:52:40 85° E 17:52:40 85° E
Cosmos 2142 Rocket 4.4 17:46:27 10° N 17:52:54 78° E 17:59:15 10° SSE
COSMO-SKYMED 1 2.9 17:52:24 26° N 17:54:43 63° WNW 17:59:01 10° SSW
Meteor 1-14 Rocket 4.2 17:51:33 10° NNW 17:57:35 84° ENE 18:03:35 10° SSE
Cosmos 1515 Rocket 4.1 17:54:01 10° SSW 17:58:20 58° WNW 18:00:30 28° N
IRS-1A Rocket 4.2 17:57:14 52° SE 17:58:36 71° ENE 18:04:23 10° NNW
Tsikada Rocket 4.3 17:52:25 10° SSW 17:58:48 71° WNW 18:05:15 10° N
ERBS 4.1 17:56:17 10° W 17:58:20 29° WNW 17:58:20 29° WNW
Cosmos 2279 Rocket 3.8 17:53:26 10° N 17:59:40 72° ENE 18:02:42 32° SSE
NOSS 3-2 (C) 4.0 17:52:45 10° NW 17:59:51 62° NE 18:01:45 49° E
USA 116 4.3 18:01:22 44° N 18:02:55 80° WNW 18:08:05 10° SSW
Cosmos 1697 Rocket 3.7 17:58:11 10° WSW 18:03:33 43° NW 18:06:50 22° N
SeaSat 1 4.1 18:00:06 10° S 18:04:33 33° WSW 18:09:02 10° NW
NOSS 2-3 (E) 4.4 18:02:40 10° WSW 18:07:13 54° NW 18:08:11 47° N
H-2A R/B 3.7 18:14:20 22° N 18:14:20 22° N 18:16:18 10° N
NOSS 3-1 (C) 4.4 18:08:20 10° W 18:14:02 41° NNW 18:16:21 32° NNE
NOSS 3-1 (A) 4.2 18:10:30 10° WSW 18:16:14 48° NNW 18:18:26 36° NNE
COSMOS 2455 4.5 18:12:56 10° S 18:14:52 20° S 18:14:52 20° S
YAOGAN 1 4.3 18:17:42 10° SSW 18:21:35 32° W 18:25:29 10° NNW
Cosmos 1844 Rocket 3.4 18:21:09 10° NNW 18:24:56 41° N 18:24:56 41° N
Cosmos 2180 Rocket 4.3 18:24:05 10° N 18:30:12 87° NW 18:30:12 87° NW
MOS 1 4.5 18:31:24 64° NNW 18:31:24 64° NNW 18:36:11 10° NNW
Cosmos 2278 Rocket 4.0 18:29:33 10° NNW 18:31:52 20° N 18:31:52 20° N
CENTAUR R/B 3.0 18:29:43 10° NW 18:37:26 72° NE 18:37:54 70° ENE
CZ-4 R/B 4.2 18:36:35 10° SW 18:39:14 17° W 18:41:53 10° NW
Lacrosse 4 Rocket 4.1 18:49:55 10° WNW 18:51:27 14° NW 18:51:27 14° NW
ATLAS 3B R/B 3.1 18:53:31 10° NW 18:58:36 53° NNW 18:58:36 53° NNW
USA 238 DEB 4.2 18:54:03 10° NW 19:01:00 57° SW 19:01:31 56° SW
USA 238 4.2 18:54:07 10° NW 19:01:08 58° SW 19:01:36 57° SW
NOSS 3-2 (A) 4.2 18:57:14 10° NW 19:04:31 62° SW 19:05:08 60° SSW
SL-16 R/B 3.9 19:04:44 10° SW 19:07:06 26° SW 19:07:06 26° SW
Cosmos 1980 Rocket 3.8 19:05:33 10° W 19:10:29 29° NW 19:10:55 29° NNW
Cosmos 2322 Rocket 4.3 19:11:13 10° SW 19:12:37 18° SW 19:12:37 18° SW
USA 215 4.2 19:36:17 42° W 19:36:17 42° W 19:40:42 10° WNW
CENTAUR R/B 4.4 20:20:38 10° NW 20:25:05 33° WNW 20:25:05 33° WNW
